Notices

What's New in latest Release from April 7th, 2021:

- Updated Glossary, including Speed of Maximum Gust, and Total Hourly Precipitation

- Updated national and regional climate services offices contacts and prices information

- Addition of station inventory lists for 1981-2010, 1971-2000, and 1961-1990 Normals.

If you haven't already, please take our survey and provide feedback about our website: https://eccc.sondage-survey.ca/f/LanguageSelection.aspx?s=442ca660-fcf1-47c0-95a9-59707d6fd709

Hourly Data Report for September 05, 2017

TORONTO CITY
ONTARIO

43°40'00.000" N
79°24'00.000" W
112.50 m
6158355
71508
XTO

Download Data

Hourly Data (September 2017)
Hourly Data Report for September 5, 2017
TIME
LST
Temp Definition
°C
Dew Point Definition
°C
Rel Hum Definition
%
Precip. Amount Definition
mm

Wind Dir Definition
10's deg

Wind Spd Definition
km/h
Visibility Definition
km
Stn Press Definition
kPa
Hmdx Definition


Wind Chill Definition


Weather Definition


00:00 16.7 12.7 77 0.0 LegendMM LegendMM   99.03     LegendNANA
01:00 16.3 12.3 77 0.0 LegendMM LegendMM   99.09     LegendNANA
02:00 15.4 11.9 79 0.0 LegendMM LegendMM   99.16     LegendNANA
03:00 14.8 12.2 84 0.0 LegendMM LegendMM   99.15     LegendNANA
04:00 14.9 12.5 85 0.0 LegendMM LegendMM   99.20     LegendNANA
05:00 14.3 12.0 86 0.0 LegendMM LegendMM   99.24     LegendNANA
06:00 14.2 11.8 85 0.0 LegendMM LegendMM   99.29     LegendNANA
07:00 15.0 12.7 86 0.0 LegendMM LegendMM   99.32     LegendNANA
08:00 16.4 12.7 79 0.0 LegendMM LegendMM   99.31     LegendNANA
09:00 17.6 12.4 71 0.0 LegendMM LegendMM   99.32     LegendNANA
10:00 19.4 11.3 60 0.0 LegendMM LegendMM   99.28     LegendNANA
11:00 19.6 12.0 61 0.0 LegendMM LegendMM   99.32     LegendNANA
12:00 20.0 10.9 56 0.0 LegendMM LegendMM   99.30     LegendNANA
13:00 19.3 12.5 65 0.0 LegendMM LegendMM   99.28     LegendNANA
14:00 15.5 12.9 84 7.0 LegendMM LegendMM   99.32     LegendNANA
15:00 17.8 13.6 76 0.0 LegendMM LegendMM   99.31     LegendNANA
16:00 19.3 12.5 65 0.2 LegendMM LegendMM   99.29     LegendNANA
17:00 18.7 13.7 73 0.0 LegendMM LegendMM   99.33     LegendNANA
18:00 17.8 13.4 75 0.0 LegendMM LegendMM   99.39     LegendNANA
19:00 17.4 13.5 78 0.0 LegendMM LegendMM   99.43     LegendNANA
20:00 16.9 13.6 81 0.0 LegendMM LegendMM   99.55     LegendNANA
21:00 15.8 13.0 83 0.0 LegendMM LegendMM   99.60     LegendNANA
22:00 15.1 11.8 81 0.0 LegendMM LegendMM   99.61     LegendNANA
23:00 14.8 10.9 78 0.0 LegendMM LegendMM   99.60     LegendNANA

Notes on Data Quality.

Legend

  • E = Estimated
  • M = Missing
  • NA = Not Available*
  • [empty] = Indicates an unobserved value
Date modified: